When you browse on this site, cookies collect data to enhance your experience and personalize the content and advertising you see.
Visit our Privacy Policy to learn more. By continuing to use the site, you agree to this use of cookies and data.
  • în România
  • Lista ţărilor
  • Pe 7 zile
  • Temperatura apei
  • Hartă satelitară
  • Meteo pe hartă
  • Widget-uri
  • user-avatar
    Intrare

    Meteo pe oră la Arhus

    Astăzi, 26 Martie, Marţi

    Timp Temperatura Precipitaţii Vânt Presiune Umiditate
    00:00 +2°C° 0 mm 6 m/s 763 mmHg 78%
    01:00 +2°C° 0 mm 7 m/s 763 mmHg 75%
    02:00 +2°C° 0 mm 7 m/s 763 mmHg 78%
    03:00 +2°C° 0 mm 7 m/s 762 mmHg 81%
    04:00 +2°C° 0 mm 7 m/s 762 mmHg 84%
    05:00 +2°C° 0 mm 7 m/s 762 mmHg 81%
    06:00 +2°C° 0 mm 7 m/s 762 mmHg 78%
    07:00 +2°C° 0 mm 7 m/s 762 mmHg 75%
    08:00 +3°C° 0 mm 7 m/s 762 mmHg 69%
    09:00 +4°C° 0 mm 7 m/s 763 mmHg 63%
    10:00 +5°C° 0 mm 7 m/s 763 mmHg 56%
    11:00 +5°C° 0 mm 6 m/s 763 mmHg 53%
    12:00 +7°C° 0 mm 5 m/s 763 mmHg 50%
    13:00 +7°C° 0 mm 4 m/s 764 mmHg 47%
    14:00 +9°C° 0 mm 3 m/s 764 mmHg 48%
    15:00 +9°C° 0 mm 3 m/s 764 mmHg 49%
    16:00 +9°C° 0 mm 3 m/s 764 mmHg 50%
    17:00 +8°C° 0 mm 3 m/s 764 mmHg 59%
    18:00 +8°C° 0 mm 3 m/s 765 mmHg 68%
    19:00 +7°C° 0 mm 3 m/s 765 mmHg 77%
    20:00 +6°C° 0 mm 4 m/s 765 mmHg 80%
    21:00 +6°C° 0 mm 4 m/s 765 mmHg 83%
    22:00 +5°C° 0 mm 5 m/s 765 mmHg 86%
    23:00 +5°C° 0 mm 5 m/s 765 mmHg 88%

    Mâine, 27 Martie, Miercuri

    Timp Temperatura Precipitaţii Vânt Presiune Umiditate
    00:00 +5°C° 0 mm 5 m/s 765 mmHg 90%
    01:00 +3°C° 0 mm 6 m/s 765 mmHg 92%
    02:00 +4°C° 0 mm 6 m/s 765 mmHg 91%
    03:00 +4°C° 0 mm 6 m/s 765 mmHg 90%
    04:00 +5°C° 0 mm 6 m/s 764 mmHg 89%
    05:00 +5°C° 0 mm 6 m/s 764 mmHg 90%
    06:00 +5°C° 0 mm 6 m/s 764 mmHg 90%
    07:00 +5°C° 0 mm 6 m/s 764 mmHg 91%
    08:00 +7°C° 0 mm 6 m/s 764 mmHg 88%
    09:00 +8°C° 0 mm 7 m/s 764 mmHg 85%
    10:00 +9°C° 0 mm 7 m/s 765 mmHg 82%
    11:00 +10°C° 0 mm 8 m/s 765 mmHg 78%
    12:00 +10°C° 0 mm 8 m/s 765 mmHg 74%
    13:00 +11°C° 0 mm 8 m/s 765 mmHg 70%
    14:00 +11°C° 0 mm 7 m/s 765 mmHg 69%
    15:00 +11°C° 0 mm 7 m/s 766 mmHg 69%
    16:00 +11°C° 0 mm 6 m/s 766 mmHg 68%
    17:00 +10°C° 0 mm 6 m/s 766 mmHg 73%
    18:00 +9°C° 0 mm 5 m/s 766 mmHg 78%
    19:00 +8°C° 0 mm 5 m/s 767 mmHg 83%
    20:00 +7°C° 0 mm 5 m/s 767 mmHg 85%
    21:00 +7°C° 0 mm 5 m/s 768 mmHg 87%
    22:00 +7°C° 0 mm 5 m/s 768 mmHg 89%
    23:00 +7°C° 0 mm 5 m/s 768 mmHg 89%

    Poimâine, 28 Martie, Joi

    Timp Temperatura Precipitaţii Vânt Presiune Umiditate
    00:00 +7°C° 0 mm 5 m/s 768 mmHg 89%
    01:00 +7°C° 0 mm 5 m/s 769 mmHg 88%
    02:00 +7°C° 0 mm 5 m/s 769 mmHg 89%
    03:00 +7°C° 0 mm 5 m/s 769 mmHg 89%
    04:00 +7°C° 0 mm 5 m/s 769 mmHg 90%
    05:00 +7°C° 0 mm 5 m/s 769 mmHg 90%
    06:00 +7°C° 0 mm 5 m/s 770 mmHg 91%
    07:00 +7°C° 0 mm 5 m/s 770 mmHg 91%
    08:00 +8°C° 0 mm 5 m/s 770 mmHg 86%
    09:00 +9°C° 0 mm 6 m/s 771 mmHg 81%
    10:00 +11°C° 0 mm 6 m/s 771 mmHg 75%
    11:00 +11°C° 0 mm 6 m/s 771 mmHg 72%
    12:00 +13°C° 0 mm 6 m/s 771 mmHg 68%
    13:00 +14°C° 0 mm 6 m/s 772 mmHg 65%
    14:00 +14°C° 0 mm 6 m/s 772 mmHg 65%
    15:00 +14°C° 0 mm 6 m/s 771 mmHg 65%
    16:00 +14°C° 0 mm 6 m/s 771 mmHg 65%
    17:00 +13°C° 0 mm 5 m/s 771 mmHg 70%
    18:00 +10°C° 0 mm 5 m/s 771 mmHg 75%
    19:00 +10°C° 0 mm 4 m/s 772 mmHg 80%
    20:00 +8°C° 0 mm 4 m/s 772 mmHg 82%
    21:00 +8°C° 0 mm 4 m/s 772 mmHg 85%
    22:00 +7°C° 0 mm 4 m/s 772 mmHg 87%
    23:00 +7°C° 0 mm 4 m/s 772 mmHg 88%

    29 Martie, Vineri

    Timp Temperatura Precipitaţii Vânt Presiune Umiditate
    00:00 +6°C° 0 mm 4 m/s 772 mmHg 89%
    01:00 +6°C° 0 mm 4 m/s 772 mmHg 90%
    02:00 +6°C° 0 mm 4 m/s 772 mmHg 91%
    03:00 +5°C° 0 mm 4 m/s 772 mmHg 91%
    04:00 +5°C° 0 mm 4 m/s 771 mmHg 92%
    05:00 +5°C° 0 mm 5 m/s 771 mmHg 91%
    06:00 +5°C° 0 mm 5 m/s 771 mmHg 90%
    07:00 +5°C° 0 mm 5 m/s 771 mmHg 89%
    08:00 +7°C° 0 mm 5 m/s 771 mmHg 82%
    09:00 +8°C° 0 mm 6 m/s 771 mmHg 74%
    10:00 +10°C° 0 mm 6 m/s 771 mmHg 67%
    11:00 +11°C° 0 mm 6 m/s 770 mmHg 65%
    12:00 +12°C° 0 mm 7 m/s 770 mmHg 63%
    13:00 +14°C° 0 mm 7 m/s 770 mmHg 60%
    14:00 +12°C° 0 mm 7 m/s 769 mmHg 58%
    15:00 +12°C° 0 mm 7 m/s 769 mmHg 56%
    16:00 +12°C° 0 mm 7 m/s 768 mmHg 54%
    17:00 +11°C° 0 mm 6 m/s 768 mmHg 58%
    18:00 +9°C° 0 mm 6 m/s 768 mmHg 63%
    19:00 +8°C° 0 mm 5 m/s 767 mmHg 68%
    20:00 +7°C° 0 mm 5 m/s 767 mmHg 73%
    21:00 +7°C° 0 mm 6 m/s 767 mmHg 77%
    22:00 +5°C° 0 mm 6 m/s 767 mmHg 82%
    23:00 +5°C° 0 mm 6 m/s 767 mmHg 84%

    30 Martie, Sâmbătă

    Timp Temperatura Precipitaţii Vânt Presiune Umiditate
    00:00 +6°C° 0 mm 5 m/s 767 mmHg 86%
    01:00 +5°C° 0 mm 5 m/s 767 mmHg 87%
    02:00 +5°C° 0 mm 5 m/s 766 mmHg 89%
    03:00 +5°C° 0 mm 5 m/s 766 mmHg 90%
    04:00 +5°C° 0 mm 5 m/s 765 mmHg 92%
    05:00 +5°C° 0 mm 5 m/s 765 mmHg 92%
    06:00 +5°C° 0 mm 5 m/s 765 mmHg 92%
    07:00 +5°C° 0 mm 5 m/s 764 mmHg 93%
    08:00 +6°C° 0 mm 5 m/s 764 mmHg 85%
    09:00 +8°C° 0 mm 5 m/s 764 mmHg 78%
    10:00 +10°C° 0 mm 5 m/s 764 mmHg 70%
    11:00 +10°C° 0 mm 6 m/s 764 mmHg 67%
    12:00 +11°C° 0 mm 6 m/s 764 mmHg 64%
    13:00 +11°C° 0 mm 6 m/s 763 mmHg 61%
    14:00 +10°C° 0 mm 6 m/s 763 mmHg 66%
    15:00 +9°C° 0 mm 6 m/s 763 mmHg 71%
    16:00 +8°C° 0 mm 5 m/s 763 mmHg 77%
    17:00 +7°C° 0 mm 5 m/s 763 mmHg 76%
    18:00 +7°C° 0 mm 5 m/s 763 mmHg 75%
    19:00 +6°C° 0 mm 4 m/s 763 mmHg 74%
    20:00 +5°C° 0 mm 5 m/s 763 mmHg 74%
    21:00 +5°C° 0 mm 5 m/s 764 mmHg 74%
    22:00 +3°C° 0 mm 5 m/s 764 mmHg 74%
    23:00 +3°C° 0 mm 5 m/s 764 mmHg 74%

    31 Martie, Duminică

    Timp Temperatura Precipitaţii Vânt Presiune Umiditate
    00:00 +2°C° 0 mm 5 m/s 764 mmHg 75%
    01:00 +2°C° 0 mm 6 m/s 764 mmHg 75%
    02:00 +1°C° 0 mm 6 m/s 764 mmHg 68%
    03:00 -1°C° 0 mm 6 m/s 764 mmHg 62%
    04:00 -1°C° 0 mm 7 m/s 765 mmHg 55%
    05:00 -1°C° 0 mm 6 m/s 765 mmHg 55%
    06:00 -2°C° 0 mm 6 m/s 766 mmHg 54%
    07:00 -2°C° 0 mm 6 m/s 766 mmHg 54%
    08:00 0°C° 0 mm 7 m/s 767 mmHg 51%
    09:00 +2°C° 0 mm 7 m/s 767 mmHg 49%
    10:00 +2°C° 0 mm 8 m/s 768 mmHg 46%
    11:00 +4°C° 0 mm 8 m/s 768 mmHg 44%
    12:00 +4°C° 0 mm 7 m/s 769 mmHg 41%
    13:00 +4°C° 0 mm 7 m/s 769 mmHg 39%
    14:00 +4°C° 0 mm 7 m/s 770 mmHg 38%
    15:00 +4°C° 0 mm 6 m/s 770 mmHg 38%
    16:00 +4°C° 0 mm 6 m/s 770 mmHg 37%
    17:00 +3°C° 0 mm 5 m/s 771 mmHg 41%
    18:00 +3°C° 0 mm 4 m/s 771 mmHg 46%
    19:00 +1°C° 0 mm 4 m/s 771 mmHg 50%
    20:00 +2°C° 0 mm 3 m/s 772 mmHg 51%
    21:00 +1°C° 0 mm 3 m/s 772 mmHg 53%
    22:00 0°C° 0 mm 3 m/s 772 mmHg 54%
    23:00 +1°C° 0 mm 2 m/s 772 mmHg 54%
    Arată mai mult